Flag for United Kingdom Weather past 2 weeks in Belfast, Northern Ireland, United Kingdom

Now
52 °F

Broken clouds.


Feels Like: 48 °F
Forecast: 48 / 58 °F
Wind: 12 mph from Northwest

Location: Belfast / Harbour

Current Time: May 24, 2015 at 8:57:29 PM

Latest Report: May 24, 2015 at 8:20 PM


Visibility: N/A

Pressure: 30.12 "Hg

Humidity: 58%

Dew point: 37 °F

Location of BelfastLocation

Historic Weather in Belfast — Graph

°F

Belfast temperature yesterday

Maximum temperature yesterday: 66 °F (at 2:50 PM)
Minimum temperature yesterday: 50 °F (at 6:20 AM)
Average temperature yesterday: 58 °F

Past Weeks' High & Low Weather Summary

 TemperatureHumidityPressure
High66 °F (May 23, 2:50 PM)94% (May 10, 6:50 AM)30.33 "Hg (May 10, 6:50 AM)
Low39 °F (May 13, 6:20 AM)31% (May 11, 5:20 PM)29.42 "Hg (May 18, 6:20 PM)
Average53 °F64%29.98 "Hg
* Reported May 9 7:20 PM — May 24 7:20 PM, Belfast, Weather by CustomWeather, © 2015

Note: Actual official high and low records may vary slightly from our data, if they occured in-between our weather recording intervals... More about our weather records

Advertising

Belfast weather history for previous 24 hours

 ConditionsComfort  
Time TempWeatherWind HumidityBarometerVisibility
7:20 PM
Sun, May 24
54 °FBroken clouds.14 mph54%30.12 "HgN/A
6:50 PM54 °FBroken clouds.12 mph54%30.12 "HgN/A
6:20 PM54 °FBroken clouds.14 mph54%30.12 "HgN/A
5:50 PM55 °FBroken clouds.18 mph55%30.12 "HgN/A
5:20 PM55 °FBroken clouds.12 mph51%30.12 "HgN/A
4:50 PM55 °FBroken clouds.12 mph55%30.12 "HgN/A
4:20 PM55 °FBroken clouds.13 mph55%30.12 "HgN/A
3:50 PM55 °FBroken clouds.15 mph51%30.12 "HgN/A
3:20 PM55 °FBroken clouds.14 mph55%30.12 "HgN/A
2:50 PM55 °FScattered clouds.14 mph55%30.09 "HgN/A
2:20 PM55 °FScattered clouds.14 mph55%30.12 "HgN/A
1:50 PM55 °FPartly sunny.13 mph55%30.12 "HgN/A
1:20 PM55 °FPartly sunny.14 mph55%30.12 "HgN/A
12:50 PM55 °FPartly sunny.14 mph51%30.12 "HgN/A
12:20 PM54 °FPartly sunny.14 mph58%30.12 "HgN/A
11:50 AM52 °FPartly sunny.13 mph62%30.12 "HgN/A
11:20 AM54 °FPartly sunny.15 mph54%30.12 "HgN/A
10:50 AM52 °FPartly sunny.13 mph67%30.12 "HgN/A
10:20 AM52 °FPartly sunny.15 mph62%30.09 "HgN/A
9:50 AM52 °FPartly sunny.14 mph58%30.09 "HgN/A
9:20 AM52 °FPartly sunny.13 mph62%30.09 "HgN/A
8:50 AM50 °FScattered clouds.13 mph67%30.09 "HgN/A
8:20 AM52 °FScattered clouds.10 mph67%30.09 "HgN/A
7:50 AM50 °FScattered clouds.9 mph67%30.09 "HgN/A
7:20 AM50 °FPartly sunny.12 mph67%30.09 "HgN/A
6:50 AM50 °FPartly sunny.13 mph71%30.07 "HgN/A
6:20 AM50 °FPartly sunny.10 mph71%30.07 "HgN/A
8:50 PM
Sat, May 23
59 °FScattered showers. Broken clouds.13 mph77%30.09 "HgN/A
8:20 PM61 °FBroken clouds.13 mph68%30.12 "HgN/A
Weather by CustomWeather, © 2015

See weather overviewHow to use our weather pages